This demonstration page uses our WeatherBlox Daily Observations layout. Learn more.

Left ArrowRight Arrow

Hourly Observations for October 1, 2016

Temp ( °F °C ) Dew Point ( °F °C ) Humidity (%) Winds ( mph kmh ) Pressure ( in mb ) Visibility ( mi km ) Precip ( " mm )
12:53 am 00:53 Clear 57 13.9 52 11.1 83 83 ENE 8 13 29.91 1013 10 16 0.00 0.00
1:53 am 01:53 Clear 56 13.3 52 11.1 87 87 ENE 9 15 29.90 1012 10 16 0.00 0.00
2:53 am 02:53 Clear 54 12.2 51 10.6 90 90 E 5 7 29.88 1012 10 16 0.00 0.00
3:53 am 03:53 Clear 51 10.6 49 9.4 92 92 S 3 6 29.88 1012 10 16 0.00 0.00
4:53 am 04:53 Clear 52 11.1 50 10 93 93 E 9 15 29.86 1011 10 16 0.00 0.00
5:53 am 05:53 Clear 52 11.1 50 10 93 93 ENE 10 17 29.85 1011 10 16 0.00 0.00
6:53 am 06:53 Clear 49 9.4 47 8.3 93 93 SW 7 11 29.86 1011 10 16 0.00 0.00
7:53 am 07:53 Sunny 51 10.6 50 10 96 96 E 6 9 29.86 1011 10 16 0.00 0.00
8:53 am 08:53 Sunny 58 14.4 53 11.7 84 84 E 5 7 29.83 1010 10 16 0.00 0.00
9:53 am 09:53 Sunny 64 17.8 55 12.8 73 73 ENE 6 9 29.83 1010 10 16 0.00 0.00
10:53 am 10:53 Sunny 70 21.1 57 13.9 64 64 NE 10 17 29.80 1009 10 16 0.00 0.00
11:53 am 11:53 Sunny 74 23.3 57 13.9 56 56 W 12 19 29.80 1009 10 16 0.00 0.00
12:53 pm 12:53 Sunny 75 23.9 55 12.8 50 50 WNW 9 15 29.82 1010 10 16 0.00 0.00
1:53 pm 13:53 Partly Cloudy 73 22.8 48 8.9 41 41 WSW 13 20 29.82 1010 10 16 0.00 0.00
2:53 pm 14:53 Sunny 73 22.8 51 10.6 46 46 WNW 13 20 29.82 1010 10 16 0.00 0.00
3:53 pm 15:53 Sunny 73 22.8 51 10.6 46 46 W 10 17 29.83 1010 10 16 0.00 0.00
4:53 pm 16:53 Sunny 72 22.2 51 10.6 48 48 Calm 29.81 1010 10 16 0.00 0.00
5:53 pm 17:53 Cloudy 67 19.4 52 11.1 59 59 WNW 12 19 29.84 1011 10 16 0.00 0.00
6:31 pm 18:31 Cloudy with Nearby Thunderstorms 62 16.7 55 12.8 78 78 WSW 9 15 29.85 1011 10 16 0.00 0.03
6:46 pm 18:46 Cloudy with Rain 61 16 57 14 88 88 SW 10 17 29.85 1011 7 11 0.00 0.00
6:53 pm 18:53 Cloudy with Rain 60 15.6 57 13.9 90 90 SW 13 20 29.91 1013 6 10 0.05 1.27
7:53 pm 19:53 Partly Cloudy 57 13.9 55 12.8 93 93 E 7 11 29.87 1011 10 16 0.10 2.54
8:53 pm 20:53 Mostly Clear 56 13.3 55 12.8 97 97 ESE 5 7 29.87 1012 10 16 0.00 0.00
9:53 pm 21:53 Mostly Clear 56 13.3 54 12.2 93 93 WSW 3 6 29.89 1012 10 16 0.00 0.00
10:53 pm 22:53 Cloudy 57 13.9 53 11.7 87 87 W 20 31 29.93 1014 10 16 0.00 0.00
11:53 pm 23:53 Mostly Cloudy 56 13.3 51 10.6 84 84 W 13 20 29.94 1014 10 16 0.00 0.00

Powered by AerisWeather